TimePDT,TemperatureF,Dew PointF,Humidity,Sea Level PressureIn,VisibilityMPH,Wind Direction,Wind SpeedMPH,Gust SpeedMPH,PrecipitationIn,Events,Conditions,WindDirDegrees,DateUTC
12:51 AM,71.1,64.0,78,29.86,10.0,NNW,3.5,-,N/A,,Clear,340,2012-10-02 07:51:00
1:51 AM,71.1,64.9,81,29.85,10.0,Calm,Calm,-,N/A,,Clear,0,2012-10-02 08:51:00
2:51 AM,70.0,63.0,78,29.84,10.0,Calm,Calm,-,N/A,,Clear,0,2012-10-02 09:51:00
3:51 AM,69.1,61.0,75,29.83,10.0,Calm,Calm,-,N/A,,Clear,0,2012-10-02 10:51:00
4:51 AM,68.0,57.9,70,29.83,10.0,Calm,Calm,-,N/A,,Clear,0,2012-10-02 11:51:00
5:51 AM,69.1,57.0,65,29.83,10.0,Calm,Calm,-,N/A,,Clear,0,2012-10-02 12:51:00
6:51 AM,69.1,55.0,61,29.84,10.0,Calm,Calm,-,N/A,,Partly Cloudy,0,2012-10-02 13:51:00
7:51 AM,70.0,55.0,59,29.85,10.0,Calm,Calm,-,N/A,,Partly Cloudy,0,2012-10-02 14:51:00
8:51 AM,75.9,57.9,54,29.87,10.0,Calm,Calm,-,N/A,,Partly Cloudy,0,2012-10-02 15:51:00
9:51 AM,80.1,57.9,47,29.87,10.0,Calm,Calm,-,N/A,,Partly Cloudy,0,2012-10-02 16:51:00
10:51 AM,84.9,61.0,44,29.87,10.0,NW,3.5,-,N/A,,Clear,320,2012-10-02 17:51:00
11:51 AM,84.0,64.9,53,29.86,10.0,NW,6.9,-,N/A,,Partly Cloudy,320,2012-10-02 18:51:00
12:51 PM,84.9,64.0,49,29.84,10.0,NNW,9.2,-,N/A,,Partly Cloudy,340,2012-10-02 19:51:00
1:51 PM,84.0,61.0,46,29.83,10.0,West,6.9,-,N/A,,Clear,280,2012-10-02 20:51:00
2:51 PM,82.9,64.0,53,29.83,10.0,West,8.1,-,N/A,,Clear,280,2012-10-02 21:51:00
3:51 PM,81.0,66.0,60,29.83,10.0,NNW,5.8,-,N/A,,Partly Cloudy,330,2012-10-02 22:51:00
4:51 PM,82.0,62.1,51,29.83,10.0,West,5.8,-,N/A,,Partly Cloudy,270,2012-10-02 23:51:00
5:51 PM,80.1,62.1,54,29.83,10.0,WNW,5.8,-,N/A,,Partly Cloudy,290,2012-10-03 00:51:00
6:51 PM,77.0,64.9,66,29.83,10.0,Calm,Calm,-,N/A,,Partly Cloudy,0,2012-10-03 01:51:00
7:51 PM,75.9,66.0,71,29.85,10.0,Calm,Calm,-,N/A,,Partly Cloudy,0,2012-10-03 02:51:00
8:51 PM,75.0,66.0,73,29.86,10.0,Calm,Calm,-,N/A,,Partly Cloudy,0,2012-10-03 03:51:00
9:51 PM,73.0,66.9,81,29.87,9.0,Calm,Calm,-,N/A,,Partly Cloudy,0,2012-10-03 04:51:00
10:51 PM,73.0,66.9,81,29.88,9.0,South,3.5,-,N/A,,Partly Cloudy,180,2012-10-03 05:51:00
11:51 PM,72.0,68.0,87,29.88,8.0,Calm,Calm,-,N/A,,Clear,0,2012-10-03 06:51:00